Brownsville, TX

6:30 PM CDT on May 24, 2018 (GMT -0500)
Brownsville-South Padre I International

Weather History for KBRO - March, 2013

Change the Weather History Date:

Wednesday, March 13, 2013

  Actual Average Record
Temperature  
Mean Temperature 65 °F 69 °F  
Max Temperature 79 °F 78 °F 92 °F (2005)
Min Temperature 50 °F 59 °F 32 °F (1932)
Degree Days  
Heating Degree Days 0 2  
Month to date heating degree days 22 26  
Since 1 July heating degree days 315 529  
Cooling Degree Days 0 5  
Month to date cooling degree days 37 60  
Year to date cooling degree days 258 201  
Growing Degree Days 14 (Base 50)    
Moisture  
Dew Point 52 °F    
Average Humidity 69    
Maximum Humidity 96    
Minimum Humidity 42    
Precipitation  
Precipitation 0.00 in 0.03 in 1.60 in (1903)
Month to date precipitation 0.26 0.46  
Year to date precipitation 1.74 2.81  
Sea Level Pressure  
Sea Level Pressure 30.30 in    
Wind  
Wind Speed 6 mph (ENE)    
Max Wind Speed 17 mph    
Max Gust Speed 23 mph    
Visibility 10 miles    
Events      
T = Trace of Precipitation, MM = Missing Value Source: NWS Daily Summary

Daily Weather History Graph

Daily Weather History Graph

Search for Another Location

Airport or City:

Astronomy

Mar. 13, 2013 Rise Set
Actual Time 7:40 AM CDT 7:37 PM CDT
Civil Twilight 7:17 AM CDT 8:00 PM CDT
Nautical Twilight 6:51 AM CDT 8:27 PM CDT
Astronomical Twilight 6:24 AM CDT 8:54 PM CDT
Moon 8:36 AM CDT (3/13) 9:37 PM CDT (3/13)
Length of Visible Light 12h 42m
Length of Day
11h 57m
Waxing Crescent, 4% of the Moon is Illuminated
Mar 13
Waxing Crescent
Mar 19
First Quarter
Mar 27
Full
Apr 2
Last Quarter
Apr 10
New

Hourly Weather History & Observations

Time (CDT) Temp. Dew Point Humidity Pressure Visibility Wind Dir Wind Speed Gust Speed Precip Events Conditions
12:53 AM 55.9 °F 50.0 °F 80% 30.23 in 10.0 mi East 3.5 mph - N/A   Clear
1:53 AM 52.0 °F 46.9 °F 83% 30.24 in 10.0 mi Calm Calm - N/A   Clear
2:53 AM 51.1 °F 46.9 °F 86% 30.24 in 10.0 mi Calm Calm - N/A   Clear
3:53 AM 51.1 °F 46.9 °F 86% 30.24 in 10.0 mi Calm Calm - N/A   Clear
4:53 AM 51.1 °F 46.9 °F 86% 30.24 in 10.0 mi Calm Calm - N/A   Clear
5:53 AM 50.0 °F 46.9 °F 89% 30.24 in 10.0 mi Calm Calm - N/A   Clear
6:53 AM 51.1 °F 50.0 °F 96% 30.27 in 10.0 mi Calm Calm - N/A   Clear
7:53 AM 51.1 °F 48.9 °F 92% 30.29 in 10.0 mi Calm Calm - N/A   Clear
8:53 AM 59.0 °F 57.0 °F 93% 30.32 in 10.0 mi Calm Calm - N/A   Clear
9:53 AM 69.1 °F 57.0 °F 65% 30.35 in 10.0 mi ENE 6.9 mph - N/A   Clear
10:53 AM 72.0 °F 55.0 °F 55% 30.37 in 10.0 mi Variable 4.6 mph - N/A   Partly Cloudy
11:53 AM 75.9 °F 53.1 °F 45% 30.38 in 10.0 mi East 10.4 mph - N/A   Clear
12:53 PM 75.9 °F 53.1 °F 45% 30.36 in 10.0 mi East 4.6 mph - N/A   Clear
1:53 PM 78.1 °F 54.0 °F 43% 30.34 in 10.0 mi ESE 8.1 mph 17.3 mph N/A   Partly Cloudy
2:53 PM 77.0 °F 53.1 °F 43% 30.32 in 10.0 mi East 16.1 mph 21.9 mph N/A   Partly Cloudy
3:53 PM 75.9 °F 53.1 °F 45% 30.30 in 10.0 mi ENE 11.5 mph - 0.00 in   Clear
4:53 PM 73.9 °F 54.0 °F 50% 30.30 in 10.0 mi ENE 13.8 mph 21.9 mph N/A   Clear
5:53 PM 71.1 °F 54.0 °F 55% 30.30 in 10.0 mi NE 17.3 mph - N/A   Partly Cloudy
6:53 PM 69.1 °F 54.0 °F 58% 30.31 in 10.0 mi ENE 9.2 mph - N/A   Clear
7:53 PM 66.0 °F 53.1 °F 63% 30.32 in 10.0 mi ENE 6.9 mph - N/A   Clear
8:53 PM 63.0 °F 53.1 °F 70% 30.33 in 10.0 mi ENE 4.6 mph - N/A   Clear
9:53 PM 61.0 °F 54.0 °F 78% 30.34 in 10.0 mi East 3.5 mph - N/A   Clear
10:53 PM 60.1 °F 55.0 °F 83% 30.35 in 10.0 mi East 4.6 mph - N/A   Clear
11:53 PM 61.0 °F 55.9 °F 83% 30.35 in 10.0 mi East 5.8 mph - N/A   Clear